Weather History for Muskegon, MI

Change the Weather History Date:

Thursday, April 24, 2014

  Actual Average Record
Temperature  
Mean Temperature 53 °F 50 °F  
Max Temperature 61 °F 60 °F 81 °F (1990)
Min Temperature 44 °F 40 °F 24 °F (1918)
Degree Days  
Heating Degree Days 12 15  
Month to date heating degree days 488 471  
Since 1 July heating degree days 6816 6133  
Cooling Degree Days 0 0  
Month to date cooling degree days 0 0  
Year to date cooling degree days 0 0  
Growing Degree Days 2 (Base 50)    
Moisture  
Dew Point 26 °F    
Average Humidity 47    
Maximum Humidity 71    
Minimum Humidity 22    
Precipitation  
Precipitation 0.03 in 0.09 in 1.71 in (1976)
Month to date precipitation 2.00 2.32  
Year to date precipitation 8.80 8.43  
Snow  
Snow 0.00 in 0.00 in 3.50 in (1980)
Month to date snowfall 1.6 2.3  
Since 1 July snowfall 132.7 93.7  
Snow Depth 0.00 in    
Sea Level Pressure  
Sea Level Pressure 29.99 in    
Wind  
Wind Speed 13 mph (ESE)    
Max Wind Speed 28 mph    
Max Gust Speed 35 mph    
Visibility 10 miles    
Events Rain    
T = Trace of Precipitation, MM = Missing Value Source: NWS Daily Summary

Daily Weather History Graph

Daily Weather History Graph

Search for Another Location

Airport:

Trip Planner

Search our weather history database for the weather conditions in past years. The results will help you decide how hot, cold, wet, or windy it might be!

Date:

Astronomy

Apr. 24, 2014 Rise Set
Actual Time 6:48 AM EDT 8:38 PM EDT
Civil Twilight 6:18 AM EDT 9:08 PM EDT
Nautical Twilight 5:41 AM EDT 9:46 PM EDT
Astronomical Twilight 5:01 AM EDT 10:26 PM EDT
Moon 4:07 AM EDT (4/24) 3:45 PM EDT (4/24)
Length of Visible Light 14h 50m
Length of Day
13h 49m
Waning Crescent, 24% of the Moon is Illuminated
Apr 24
Waning Crescent
Apr 29
New
May 6
First Quarter
May 14
Full
May 21
Last Quarter

Hourly Weather History & Observations

Time (EDT) Temp. Windchill Dew Point Humidity Pressure Visibility Wind Dir Wind Speed Gust Speed Precip Events Conditions
12:55 AM 45.0 °F 43.5 °F 25.0 °F 46% 30.09 in 10.0 mi ENE 3.5 mph - N/A   Clear
1:55 AM 45.0 °F - 24.1 °F 44% 30.11 in 10.0 mi Calm Calm - N/A   Clear
2:55 AM 45.0 °F 43.5 °F 25.0 °F 46% 30.11 in 10.0 mi ENE 3.5 mph - N/A   Overcast
3:55 AM 45.0 °F 41.8 °F 23.0 °F 42% 30.11 in 10.0 mi East 5.8 mph - N/A   Overcast
4:55 AM 45.0 °F 41.8 °F 26.1 °F 48% 30.12 in 10.0 mi ESE 5.8 mph - N/A   Overcast
5:55 AM 45.0 °F 41.8 °F 27.0 °F 49% 30.12 in 10.0 mi East 5.8 mph - N/A   Overcast
6:55 AM 44.1 °F 40.1 °F 28.0 °F 53% 30.11 in 10.0 mi East 6.9 mph - N/A   Overcast
7:55 AM 45.0 °F 41.8 °F 28.9 °F 53% 30.12 in 10.0 mi ESE 5.8 mph - 0.00 in   Overcast
8:55 AM 45.0 °F 41.2 °F 32.0 °F 60% 30.12 in 10.0 mi ESE 6.9 mph - 0.00 in Rain Light Rain
9:55 AM 46.0 °F 41.9 °F 35.1 °F 66% 30.09 in 10.0 mi ESE 8.1 mph - 0.00 in Rain Light Rain
10:55 AM 46.9 °F - 37.0 °F 68% 30.09 in 9.0 mi SE 9.2 mph - 0.02 in Rain Light Rain
11:55 AM 50.0 °F - 39.0 °F 66% 30.05 in 10.0 mi East 15.0 mph - 0.00 in   Overcast
12:55 PM 55.0 °F - 34.0 °F 45% 30.04 in 10.0 mi ESE 15.0 mph - N/A   Overcast
1:55 PM 55.9 °F - 25.0 °F 30% 29.99 in 10.0 mi ESE 24.2 mph - N/A   Overcast
2:55 PM 57.9 °F - 25.0 °F 28% 29.96 in 10.0 mi ESE 25.3 mph 31.1 mph N/A   Overcast
3:55 PM 60.1 °F - 23.0 °F 24% 29.93 in 10.0 mi ESE 20.7 mph 29.9 mph N/A   Overcast
4:55 PM 59.0 °F - 21.0 °F 23% 29.87 in 10.0 mi East 23.0 mph 32.2 mph N/A   Mostly Cloudy
5:55 PM 60.1 °F - 21.9 °F 23% 29.83 in 10.0 mi East 25.3 mph 32.2 mph N/A   Mostly Cloudy
6:55 PM 57.9 °F - 21.0 °F 24% 29.84 in 10.0 mi ESE 16.1 mph 25.3 mph N/A   Mostly Cloudy
7:55 PM 55.9 °F - 25.0 °F 30% 29.83 in 10.0 mi ESE 12.7 mph 23.0 mph N/A   Mostly Cloudy
8:55 PM 54.0 °F - 23.0 °F 30% 29.83 in 10.0 mi ESE 12.7 mph - N/A   Mostly Cloudy
9:55 PM 52.0 °F - 21.0 °F 30% 29.83 in 10.0 mi ESE 13.8 mph - N/A   Overcast
10:55 PM 51.1 °F - 19.9 °F 29% 29.82 in 10.0 mi ESE 12.7 mph - N/A   Overcast
11:55 PM 50.0 °F - 19.0 °F 29% 29.79 in 10.0 mi ESE 16.1 mph - N/A   Overcast